Time,TemperatureF,DewpointF,PressureIn,WindDirection,WindDirectionDegrees,WindSpeedMPH,WindSpeedGustMPH,Humidity,HourlyPrecipIn,Conditions,Clouds,dailyrainin,SoftwareType,DateUTC
2013-01-27 00:05:00,43.7,39.5,29.95,WSW,247,1.1,-999.0,85,-99.99,,,0.00,Acu-Link.com,2013-01-27 08:05:00,
2013-01-27 00:21:00,43.2,39.3,29.96,WSW,247,2.2,-999.0,86,-99.99,,,0.00,Acu-Link.com,2013-01-27 08:21:00,
2013-01-27 00:36:00,43.7,40.4,29.95,ENE,67,1.1,-999.0,88,-99.99,,,0.00,Acu-Link.com,2013-01-27 08:36:00,
2013-01-27 00:51:00,44.6,40.1,29.95,ENE,67,0.0,-999.0,84,-99.99,,,0.00,Acu-Link.com,2013-01-27 08:51:00,
2013-01-27 01:16:00,45.0,39.8,29.95,SW,225,4.7,-999.0,82,-99.99,,,0.00,Acu-Link.com,2013-01-27 09:16:00,
2013-01-27 01:31:00,44.8,40.3,29.94,South,180,0.0,-999.0,84,-99.99,,,0.00,Acu-Link.com,2013-01-27 09:31:00,
2013-01-27 01:46:00,43.9,40.0,29.95,East,90,0.0,-999.0,86,-99.99,,,0.00,Acu-Link.com,2013-01-27 09:46:00,
2013-01-27 02:01:00,43.7,39.8,29.95,NE,45,1.1,-999.0,86,-99.99,,,0.00,Acu-Link.com,2013-01-27 10:01:00,
2013-01-27 02:17:00,43.3,39.1,29.97,ENE,67,0.0,-999.0,85,-99.99,,,0.00,Acu-Link.com,2013-01-27 10:17:00,
2013-01-27 02:32:00,43.2,39.3,29.96,NNW,337,2.2,-999.0,86,-99.99,,,0.00,Acu-Link.com,2013-01-27 10:32:00,
2013-01-27 02:47:00,43.7,39.5,29.95,SW,225,0.0,-999.0,85,-99.99,,,0.00,Acu-Link.com,2013-01-27 10:47:00,
2013-01-27 03:02:00,43.7,39.8,29.94,SSE,157,2.2,-999.0,86,-99.99,,,0.00,Acu-Link.com,2013-01-27 11:02:00,
2013-01-27 03:17:00,43.9,39.4,29.94,ESE,112,2.2,-999.0,84,-99.99,,,0.00,Acu-Link.com,2013-01-27 11:17:00,
2013-01-27 03:33:00,43.7,39.2,29.94,NE,45,3.2,-999.0,84,-99.99,,,0.00,Acu-Link.com,2013-01-27 11:33:00,
2013-01-27 03:48:00,43.7,39.2,29.95,WSW,247,3.7,-999.0,84,-99.99,,,0.00,Acu-Link.com,2013-01-27 11:48:00,
2013-01-27 04:03:00,43.9,39.1,29.95,SSW,202,1.1,-999.0,83,-99.99,,,0.00,Acu-Link.com,2013-01-27 12:03:00,
2013-01-27 04:18:00,43.7,38.9,29.93,South,180,3.2,-999.0,83,-99.99,,,0.00,Acu-Link.com,2013-01-27 12:18:00,
2013-01-27 04:33:00,43.5,38.7,29.94,SW,225,3.2,-999.0,83,-99.99,,,0.00,Acu-Link.com,2013-01-27 12:33:00,
2013-01-27 04:49:00,43.3,38.5,29.93,ENE,67,1.7,-999.0,83,-99.99,,,0.00,Acu-Link.com,2013-01-27 12:49:00,
2013-01-27 05:04:00,43.2,38.4,29.94,WSW,247,2.2,-999.0,83,-99.99,,,0.00,Acu-Link.com,2013-01-27 13:04:00,
2013-01-27 05:19:00,43.2,38.4,29.95,West,270,5.8,-999.0,83,-99.99,,,0.00,Acu-Link.com,2013-01-27 13:19:00,
2013-01-27 05:34:00,42.8,38.3,29.94,NE,45,2.7,-999.0,84,-99.99,,,0.00,Acu-Link.com,2013-01-27 13:34:00,
2013-01-27 05:49:00,42.3,38.1,29.94,East,90,1.7,-999.0,85,-99.99,,,0.00,Acu-Link.com,2013-01-27 13:49:00,
2013-01-27 06:05:00,43.0,38.5,29.94,South,180,2.7,-999.0,84,-99.99,,,0.00,Acu-Link.com,2013-01-27 14:05:00,
2013-01-27 06:23:00,42.6,38.4,29.95,South,180,2.2,-999.0,85,-99.99,,,0.00,Acu-Link.com,2013-01-27 14:23:00,
2013-01-27 06:38:00,43.2,38.7,29.97,SSW,202,3.2,-999.0,84,-99.99,,,0.00,Acu-Link.com,2013-01-27 14:38:00,
2013-01-27 06:53:00,42.8,38.3,29.97,SE,135,3.7,-999.0,84,-99.99,,,0.00,Acu-Link.com,2013-01-27 14:53:00,
2013-01-27 07:08:00,42.1,37.9,29.97,WSW,247,2.2,-999.0,85,-99.99,,,0.00,Acu-Link.com,2013-01-27 15:08:00,
2013-01-27 07:23:00,41.5,37.6,29.98,SW,225,2.2,-999.0,86,-99.99,,,0.00,Acu-Link.com,2013-01-27 15:23:00,
2013-01-27 07:39:00,41.2,37.3,29.99,West,270,1.7,-999.0,86,-99.99,,,0.00,Acu-Link.com,2013-01-27 15:39:00,
2013-01-27 07:54:00,42.1,38.2,29.99,WNW,292,2.2,-999.0,86,-99.99,,,0.00,Acu-Link.com,2013-01-27 15:54:00,
2013-01-27 08:09:00,45.1,38.7,30.01,SE,135,1.1,-999.0,78,-99.99,,,0.00,Acu-Link.com,2013-01-27 16:09:00,
2013-01-27 08:24:00,45.9,38.1,30.00,NW,315,3.2,-999.0,74,-99.99,,,0.00,Acu-Link.com,2013-01-27 16:24:00,
2013-01-27 08:40:00,47.1,37.8,30.02,West,270,2.7,-999.0,70,-99.99,,,0.00,Acu-Link.com,2013-01-27 16:40:00,
2013-01-27 08:55:00,48.0,37.6,30.01,NNE,22,6.3,-999.0,67,-99.99,,,0.00,Acu-Link.com,2013-01-27 16:55:00,
2013-01-27 09:10:00,48.7,37.9,30.01,NE,45,3.2,-999.0,66,-99.99,,,0.00,Acu-Link.com,2013-01-27 17:10:00,
2013-01-27 09:25:00,49.8,37.7,30.01,ESE,112,2.2,-999.0,63,-99.99,,,0.00,Acu-Link.com,2013-01-27 17:25:00,
2013-01-27 09:40:00,51.4,38.8,30.02,NNW,337,1.7,-999.0,62,-99.99,,,0.00,Acu-Link.com,2013-01-27 17:40:00,
2013-01-27 09:56:00,52.0,38.1,30.05,North,0,1.1,-999.0,59,-99.99,,,0.00,Acu-Link.com,2013-01-27 17:56:00,
2013-01-27 10:11:00,52.2,37.9,30.04,North,0,2.2,-999.0,58,-99.99,,,0.00,Acu-Link.com,2013-01-27 18:11:00,
2013-01-27 10:26:00,52.0,38.1,30.04,ESE,112,2.2,-999.0,59,-99.99,,,0.00,Acu-Link.com,2013-01-27 18:26:00,
2013-01-27 10:42:00,52.5,39.0,30.05,NNE,22,4.7,-999.0,60,-99.99,,,0.00,Acu-Link.com,2013-01-27 18:42:00,
2013-01-27 10:57:00,52.5,38.2,30.05,East,90,2.7,-999.0,58,-99.99,,,0.00,Acu-Link.com,2013-01-27 18:57:00,
2013-01-27 11:12:00,53.8,37.5,30.05,East,90,1.1,-999.0,54,-99.99,,,0.00,Acu-Link.com,2013-01-27 19:12:00,
2013-01-27 11:27:00,54.3,37.5,30.04,NNE,22,2.7,-999.0,53,-99.99,,,0.00,Acu-Link.com,2013-01-27 19:27:00,
2013-01-27 11:42:00,55.4,37.6,30.04,SE,135,3.2,-999.0,51,-99.99,,,0.00,Acu-Link.com,2013-01-27 19:42:00,
2013-01-27 11:58:00,55.4,37.1,30.03,SE,135,1.7,-999.0,50,-99.99,,,0.00,Acu-Link.com,2013-01-27 19:58:00,
2013-01-27 12:13:00,55.2,37.4,30.03,NE,45,4.7,-999.0,51,-99.99,,,0.00,Acu-Link.com,2013-01-27 20:13:00,
2013-01-27 12:28:00,57.6,40.6,30.02,NE,45,2.7,-999.0,53,-99.99,,,0.00,Acu-Link.com,2013-01-27 20:28:00,
2013-01-27 12:43:00,56.3,39.4,30.03,NNE,22,4.2,-999.0,53,-99.99,,,0.00,Acu-Link.com,2013-01-27 20:43:00,
2013-01-27 12:58:00,57.0,39.6,30.02,NNE,22,3.2,-999.0,52,-99.99,,,0.00,Acu-Link.com,2013-01-27 20:58:00,
2013-01-27 13:14:00,55.4,38.6,30.01,ENE,67,4.2,-999.0,53,-99.99,,,0.00,Acu-Link.com,2013-01-27 21:14:00,
2013-01-27 13:29:00,55.6,37.8,30.01,North,0,2.2,-999.0,51,-99.99,,,0.00,Acu-Link.com,2013-01-27 21:29:00,
2013-01-27 13:44:00,57.9,35.0,30.00,North,0,2.2,-999.0,42,-99.99,,,0.00,Acu-Link.com,2013-01-27 21:44:00,
2013-01-27 13:59:00,53.6,33.3,30.00,NNE,22,2.7,-999.0,46,-99.99,,,0.00,Acu-Link.com,2013-01-27 21:59:00,
2013-01-27 14:14:00,54.9,33.4,30.00,East,90,4.2,-999.0,44,-99.99,,,0.00,Acu-Link.com,2013-01-27 22:14:00,
2013-01-27 14:30:00,56.3,34.7,30.00,NE,45,3.7,-999.0,44,-99.99,,,0.00,Acu-Link.com,2013-01-27 22:30:00,
2013-01-27 14:45:00,55.8,35.3,30.00,NNE,22,3.2,-999.0,46,-99.99,,,0.00,Acu-Link.com,2013-01-27 22:45:00,
2013-01-27 15:00:00,55.8,36.4,29.99,SSW,202,2.2,-999.0,48,-99.99,,,0.00,Acu-Link.com,2013-01-27 23:00:00,
2013-01-27 15:15:00,54.9,38.6,29.99,SSE,157,2.7,-999.0,54,-99.99,,,0.00,Acu-Link.com,2013-01-27 23:15:00,
2013-01-27 15:30:00,54.5,38.2,29.99,NE,45,5.3,-999.0,54,-99.99,,,0.00,Acu-Link.com,2013-01-27 23:30:00,
2013-01-27 15:46:00,53.2,39.7,30.00,West,270,2.7,-999.0,60,-99.99,,,0.00,Acu-Link.com,2013-01-27 23:46:00,
2013-01-27 16:01:00,52.2,40.0,29.99,West,270,3.2,-999.0,63,-99.99,,,0.00,Acu-Link.com,2013-01-28 00:01:00,
2013-01-27 16:16:00,51.1,39.4,29.99,SSE,157,4.2,-999.0,64,-99.99,,,0.00,Acu-Link.com,2013-01-28 00:16:00,
2013-01-27 16:31:00,49.8,38.9,29.98,SW,225,2.7,-999.0,66,-99.99,,,0.00,Acu-Link.com,2013-01-28 00:31:00,
2013-01-27 16:47:00,50.0,40.6,29.98,SW,225,2.7,-999.0,70,-99.99,,,0.00,Acu-Link.com,2013-01-28 00:47:00,
2013-01-27 17:02:00,48.2,40.3,30.00,SW,225,2.2,-999.0,74,-99.99,,,0.00,Acu-Link.com,2013-01-28 01:02:00,
2013-01-27 17:17:00,47.1,39.6,29.99,NNE,22,2.2,-999.0,75,-99.99,,,0.00,Acu-Link.com,2013-01-28 01:17:00,
2013-01-27 17:32:00,46.6,39.4,29.99,South,180,4.2,-999.0,76,-99.99,,,0.00,Acu-Link.com,2013-01-28 01:32:00,
2013-01-27 17:48:00,46.0,39.2,30.00,SSW,202,4.2,-999.0,77,-99.99,,,0.00,Acu-Link.com,2013-01-28 01:48:00,
2013-01-27 18:03:00,45.5,39.0,30.01,SSW,202,5.8,-999.0,78,-99.99,,,0.00,Acu-Link.com,2013-01-28 02:03:00,
2013-01-27 18:18:00,45.5,39.0,30.00,WSW,247,5.3,-999.0,78,-99.99,,,0.00,Acu-Link.com,2013-01-28 02:18:00,
2013-01-27 18:33:00,45.3,38.9,30.00,South,180,4.7,-999.0,78,-99.99,,,0.00,Acu-Link.com,2013-01-28 02:33:00,
2013-01-27 18:49:00,45.1,39.3,30.00,NNE,22,2.2,-999.0,80,-99.99,,,0.00,Acu-Link.com,2013-01-28 02:49:00,
2013-01-27 19:04:00,45.0,39.2,30.00,NW,315,2.7,-999.0,80,-99.99,,,0.00,Acu-Link.com,2013-01-28 03:04:00,
2013-01-27 19:19:00,45.1,39.3,30.00,SW,225,2.7,-999.0,80,-99.99,,,0.00,Acu-Link.com,2013-01-28 03:19:00,
2013-01-27 19:34:00,45.0,39.2,30.01,ESE,112,2.2,-999.0,80,-99.99,,,0.00,Acu-Link.com,2013-01-28 03:34:00,
2013-01-27 19:49:00,45.0,39.5,30.01,SSW,202,2.7,-999.0,81,-99.99,,,0.00,Acu-Link.com,2013-01-28 03:49:00,
2013-01-27 20:05:00,45.0,39.5,30.00,SSE,157,3.2,-999.0,81,-99.99,,,0.00,Acu-Link.com,2013-01-28 04:05:00,
2013-01-27 20:20:00,45.1,39.3,30.01,SSW,202,2.2,-999.0,80,-99.99,,,0.00,Acu-Link.com,2013-01-28 04:20:00,
2013-01-27 20:35:00,45.0,39.5,30.03,NNW,337,5.3,-999.0,81,-99.99,,,0.00,Acu-Link.com,2013-01-28 04:35:00,
2013-01-27 20:50:00,45.0,39.8,30.02,NE,45,2.2,-999.0,82,-99.99,,,0.00,Acu-Link.com,2013-01-28 04:50:00,
2013-01-27 21:05:00,45.3,39.5,30.02,East,90,3.2,-999.0,80,-99.99,,,0.00,Acu-Link.com,2013-01-28 05:05:00,
2013-01-27 21:21:00,45.0,39.2,30.01,SSE,157,2.2,-999.0,80,-99.99,,,0.00,Acu-Link.com,2013-01-28 05:21:00,
2013-01-27 21:36:00,44.6,38.8,30.01,WSW,247,3.2,-999.0,80,-99.99,,,0.00,Acu-Link.com,2013-01-28 05:36:00,
2013-01-27 21:51:00,44.4,38.6,30.03,NE,45,2.2,-999.0,80,-99.99,,,0.00,Acu-Link.com,2013-01-28 05:51:00,
2013-01-27 22:06:00,43.9,39.1,30.02,SSE,157,2.2,-999.0,83,-99.99,,,0.00,Acu-Link.com,2013-01-28 06:06:00,
2013-01-27 22:21:00,43.9,39.1,30.03,SSE,157,1.7,-999.0,83,-99.99,,,0.00,Acu-Link.com,2013-01-28 06:21:00,
2013-01-27 22:37:00,43.5,39.0,30.03,SW,225,2.2,-999.0,84,-99.99,,,0.00,Acu-Link.com,2013-01-28 06:37:00,
2013-01-27 22:52:00,43.5,39.0,30.03,WSW,247,2.7,-999.0,84,-99.99,,,0.00,Acu-Link.com,2013-01-28 06:52:00,
2013-01-27 23:07:00,43.7,38.9,30.03,SSW,202,2.7,-999.0,83,-99.99,,,0.00,Acu-Link.com,2013-01-28 07:07:00,
2013-01-27 23:22:00,43.3,38.8,30.03,NE,45,2.2,-999.0,84,-99.99,,,0.00,Acu-Link.com,2013-01-28 07:22:00,
2013-01-27 23:38:00,43.2,38.4,30.03,WNW,292,5.3,-999.0,83,-99.99,,,0.00,Acu-Link.com,2013-01-28 07:38:00,
2013-01-27 23:53:00,43.3,37.9,30.04,SSE,157,2.7,-999.0,81,-99.99,,,0.00,Acu-Link.com,2013-01-28 07:53:00,